Location: Beetenbrück
(52.8113°N, 9.5946°E)
Time: 22:15:56
(UTC+00:00)

Okean 2 Rocket - Pass Details

Date: 14 April 2026
Orbit: 612 x 633 km, 82.5° (Epoch: 12 May)

Event Time Altitude Azimuth Distance (km) Brightness Sun altitude
Exits shadow 23:14:40 56° 351° (N) 748 3.6 -27.5°
Drops below altitude 10° 23:18:15 10° 9° (N) 2,011 6.6 -27.5°
Sets 23:20:30 0° 11° (N) 2,927 7.7 -27.5°
